Stündliche Wetter Abaetetuba

Heute, 2 März, Dienstag

Zeit Temperatur Niederschläge Wind Luftdruck Luftfeuchtigkeit
00:00 +25°C° 1.4 mm 1 m/S 757 mmHg 97%
01:00 +25°C° 0.5 mm 1 m/S 756 mmHg 98%
02:00 +24°C° 0.5 mm 1 m/S 756 mmHg 98%
03:00 +22°C° 0 mm 0 m/S 755 mmHg 96%
04:00 +22°C° 0 mm 0 m/S 756 mmHg 97%
05:00 +22°C° 0 mm 0 m/S 756 mmHg 97%
06:00 +22°C° 0 mm 0 m/S 756 mmHg 97%
07:00 +23°C° 0.1 mm 0 m/S 756 mmHg 96%
08:00 +23°C° 0.1 mm 0 m/S 757 mmHg 94%
09:00 +27°C° 0 mm 1 m/S 757 mmHg 92%
10:00 +28°C° 0.2 mm 1 m/S 757 mmHg 83%
11:00 +30°C° 0.2 mm 1 m/S 757 mmHg 74%
12:00 +32°C° 0.2 mm 1 m/S 757 mmHg 66%
13:00 +32°C° 0.3 mm 1 m/S 756 mmHg 63%
14:00 +33°C° 0.3 mm 1 m/S 755 mmHg 60%
15:00 +34°C° 0.3 mm 2 m/S 755 mmHg 57%
16:00 +31°C° 0.5 mm 2 m/S 755 mmHg 69%
17:00 +29°C° 0.5 mm 2 m/S 755 mmHg 80%
18:00 +27°C° 0.5 mm 3 m/S 755 mmHg 92%
19:00 +27°C° 0.6 mm 3 m/S 756 mmHg 93%
20:00 +26°C° 0.6 mm 3 m/S 756 mmHg 94%
21:00 +25°C° 0.6 mm 2 m/S 757 mmHg 96%
22:00 +25°C° 0.2 mm 2 m/S 758 mmHg 96%
23:00 +25°C° 0.2 mm 2 m/S 758 mmHg 96%

Morgen, 3 März, Mittwoch

Zeit Temperatur Niederschläge Wind Luftdruck Luftfeuchtigkeit
00:00 +25°C° 0.2 mm 2 m/S 758 mmHg 97%
01:00 +25°C° 0.1 mm 2 m/S 758 mmHg 97%
02:00 +25°C° 0.1 mm 2 m/S 757 mmHg 97%
03:00 +25°C° 0.1 mm 2 m/S 757 mmHg 97%
04:00 +25°C° 0.2 mm 2 m/S 757 mmHg 97%
05:00 +25°C° 0.2 mm 2 m/S 757 mmHg 97%
06:00 +24°C° 0.2 mm 1 m/S 757 mmHg 97%
07:00 +26°C° 0.3 mm 2 m/S 758 mmHg 95%
08:00 +27°C° 0.3 mm 2 m/S 758 mmHg 93%
09:00 +28°C° 0.3 mm 2 m/S 759 mmHg 90%
10:00 +29°C° 0.5 mm 2 m/S 759 mmHg 86%
11:00 +29°C° 0.5 mm 2 m/S 759 mmHg 82%
12:00 +30°C° 0.5 mm 2 m/S 759 mmHg 77%
13:00 +30°C° 1.5 mm 2 m/S 758 mmHg 81%
14:00 +30°C° 1.5 mm 2 m/S 757 mmHg 84%
15:00 +29°C° 1.5 mm 2 m/S 756 mmHg 87%
16:00 +29°C° 1.6 mm 2 m/S 756 mmHg 89%
17:00 +28°C° 1.6 mm 2 m/S 756 mmHg 91%
18:00 +28°C° 1.6 mm 2 m/S 756 mmHg 94%
19:00 +27°C° 1.2 mm 2 m/S 757 mmHg 94%
20:00 +26°C° 1.2 mm 2 m/S 758 mmHg 95%
21:00 +26°C° 1.2 mm 2 m/S 758 mmHg 95%
22:00 +26°C° 0.1 mm 2 m/S 759 mmHg 96%
23:00 +25°C° 0.1 mm 2 m/S 759 mmHg 96%

übermorgen, 4 März, Donnerstag

Zeit Temperatur Niederschläge Wind Luftdruck Luftfeuchtigkeit
00:00 +25°C° 0.1 mm 2 m/S 759 mmHg 97%
01:00 +25°C° 0.1 mm 2 m/S 759 mmHg 97%
02:00 +25°C° 0.1 mm 2 m/S 758 mmHg 97%
03:00 +25°C° 0.1 mm 2 m/S 758 mmHg 97%
04:00 +24°C° 0.2 mm 1 m/S 758 mmHg 97%
05:00 +24°C° 0.2 mm 1 m/S 758 mmHg 97%
06:00 +24°C° 0.2 mm 1 m/S 758 mmHg 97%
07:00 +25°C° 0.2 mm 1 m/S 758 mmHg 95%
08:00 +26°C° 0.2 mm 1 m/S 759 mmHg 92%
09:00 +28°C° 0.2 mm 2 m/S 760 mmHg 89%
10:00 +29°C° 0.5 mm 1 m/S 759 mmHg 81%
11:00 +31°C° 0.5 mm 1 m/S 759 mmHg 73%
12:00 +32°C° 0.5 mm 1 m/S 759 mmHg 65%
13:00 +32°C° 0.7 mm 1 m/S 758 mmHg 67%
14:00 +31°C° 0.7 mm 1 m/S 757 mmHg 70%
15:00 +31°C° 0.7 mm 1 m/S 756 mmHg 73%
16:00 +30°C° 0.7 mm 2 m/S 756 mmHg 79%
17:00 +29°C° 0.7 mm 2 m/S 756 mmHg 85%
18:00 +28°C° 0.7 mm 2 m/S 756 mmHg 91%
19:00 +27°C° 0.1 mm 2 m/S 757 mmHg 92%
20:00 +26°C° 0.1 mm 2 m/S 757 mmHg 94%
21:00 +25°C° 0.1 mm 2 m/S 758 mmHg 95%
22:00 +25°C° 0 mm 2 m/S 758 mmHg 95%
23:00 +25°C° 0 mm 2 m/S 758 mmHg 95%

5 März, Freitag

Zeit Temperatur Niederschläge Wind Luftdruck Luftfeuchtigkeit
00:00 +25°C° 0 mm 2 m/S 758 mmHg 95%
01:00 +25°C° 0 mm 2 m/S 757 mmHg 96%
02:00 +25°C° 0 mm 2 m/S 757 mmHg 96%
03:00 +25°C° 0 mm 1 m/S 756 mmHg 97%
04:00 +24°C° 0 mm 1 m/S 756 mmHg 97%
05:00 +24°C° 0 mm 1 m/S 756 mmHg 97%
06:00 +24°C° 0 mm 1 m/S 756 mmHg 97%
07:00 +26°C° 0.1 mm 1 m/S 757 mmHg 93%
08:00 +27°C° 0.1 mm 1 m/S 757 mmHg 88%
09:00 +29°C° 0.1 mm 1 m/S 758 mmHg 84%
10:00 +29°C° 1 mm 1 m/S 758 mmHg 84%
11:00 +30°C° 1 mm 1 m/S 757 mmHg 84%
12:00 +30°C° 1 mm 1 m/S 757 mmHg 84%
13:00 +30°C° 1.3 mm 1 m/S 756 mmHg 83%
14:00 +30°C° 1.3 mm 1 m/S 755 mmHg 83%
15:00 +30°C° 1.3 mm 1 m/S 755 mmHg 83%
16:00 +29°C° 0.9 mm 2 m/S 755 mmHg 86%
17:00 +29°C° 0.9 mm 2 m/S 755 mmHg 89%
18:00 +28°C° 0.9 mm 2 m/S 755 mmHg 92%
19:00 +27°C° 1.4 mm 2 m/S 756 mmHg 93%
20:00 +27°C° 1.4 mm 2 m/S 756 mmHg 94%
21:00 +26°C° 1.4 mm 2 m/S 757 mmHg 95%
22:00 +26°C° 1.4 mm 2 m/S 757 mmHg 95%
23:00 +26°C° 1.4 mm 2 m/S 757 mmHg 95%

6 März, Samstag

Zeit Temperatur Niederschläge Wind Luftdruck Luftfeuchtigkeit
00:00 +26°C° 1.4 mm 1 m/S 757 mmHg 96%
01:00 +25°C° 0.3 mm 1 m/S 757 mmHg 96%
02:00 +25°C° 0.3 mm 1 m/S 756 mmHg 96%
03:00 +25°C° 0.3 mm 1 m/S 756 mmHg 97%
04:00 +25°C° 0.5 mm 1 m/S 756 mmHg 97%
05:00 +25°C° 0.5 mm 1 m/S 756 mmHg 97%
06:00 +25°C° 0.5 mm 1 m/S 756 mmHg 97%
07:00 +26°C° 0.5 mm 1 m/S 757 mmHg 94%
08:00 +27°C° 0.5 mm 2 m/S 757 mmHg 92%
09:00 +28°C° 0.5 mm 2 m/S 758 mmHg 90%
10:00 +29°C° 0.7 mm 2 m/S 758 mmHg 85%
11:00 +30°C° 0.7 mm 2 m/S 757 mmHg 80%
12:00 +31°C° 0.7 mm 2 m/S 757 mmHg 75%
13:00 +31°C° 0.7 mm 2 m/S 756 mmHg 78%
14:00 +31°C° 0.7 mm 3 m/S 756 mmHg 81%
15:00 +30°C° 0.7 mm 3 m/S 755 mmHg 83%
16:00 +29°C° 1.6 mm 3 m/S 755 mmHg 87%
17:00 +28°C° 1.6 mm 3 m/S 755 mmHg 90%
18:00 +27°C° 1.6 mm 4 m/S 755 mmHg 93%
19:00 +27°C° 2 mm 3 m/S 756 mmHg 94%
20:00 +26°C° 2 mm 3 m/S 756 mmHg 95%
21:00 +26°C° 2 mm 3 m/S 757 mmHg 96%
22:00 +26°C° 1.6 mm 3 m/S 757 mmHg 96%
23:00 +26°C° 1.6 mm 3 m/S 758 mmHg 96%

7 März, Sonntag

Zeit Temperatur Niederschläge Wind Luftdruck Luftfeuchtigkeit
00:00 +26°C° 1.6 mm 2 m/S 758 mmHg 97%
01:00 +26°C° 1 mm 2 m/S 757 mmHg 97%
02:00 +26°C° 1 mm 2 m/S 757 mmHg 97%
03:00 +25°C° 1 mm 2 m/S 757 mmHg 97%
04:00 +25°C° 0.4 mm 2 m/S 757 mmHg 97%
05:00 +25°C° 0.4 mm 2 m/S 757 mmHg 97%
06:00 +25°C° 0.4 mm 2 m/S 757 mmHg 97%
07:00 +26°C° 0.4 mm 2 m/S 757 mmHg 96%
08:00 +27°C° 0.4 mm 2 m/S 758 mmHg 94%
09:00 +27°C° 0.4 mm 2 m/S 759 mmHg 92%
10:00 +28°C° 1 mm 2 m/S 758 mmHg 90%
11:00 +29°C° 1 mm 2 m/S 758 mmHg 88%
12:00 +30°C° 1 mm 2 m/S 758 mmHg 86%
13:00 +30°C° 1.5 mm 2 m/S 757 mmHg 88%
14:00 +30°C° 1.5 mm 3 m/S 756 mmHg 89%
15:00 +29°C° 1.5 mm 3 m/S 756 mmHg 90%
16:00 +29°C° 0.9 mm 3 m/S 756 mmHg 91%
17:00 +28°C° 0.9 mm 3 m/S 756 mmHg 92%
18:00 +27°C° 0.9 mm 3 m/S 756 mmHg 94%
19:00 +27°C° 0.5 mm 3 m/S 756 mmHg 95%
20:00 +26°C° 0.5 mm 3 m/S 757 mmHg 96%
21:00 +26°C° 0.5 mm 3 m/S 757 mmHg 96%
22:00 +26°C° 0.8 mm 3 m/S 758 mmHg 97%
23:00 +26°C° 0.8 mm 3 m/S 758 mmHg 97%
Mehr zeigen

Wir brauchen deine Erlaubnis

Meteoprog und unser Service Anbieter werden persönliche Daten aufbewahren, so wie Cookies, Geräte Bezeichnung oder ähnliche Technologien von deinem Gerät und Prozess, so wie Persönliche Daten Inhalte und Werbungen, genauso wie social Media und den Verkehr zu analysieren.

  • Aufbewahrung und/oder Zugang zu deiner Geräte Informationen.

    Cookies, Geräte Bezeichnung oder andere Informationen, können aufbewahrt oder Zugang zu deinem Gerät erhalten, für den Grund, der oben angegeben wird.

  • Personalisierte Werbung und Inhalte, Messungen, Einblick in das Publikum und Produkt Entwicklung.

    Werbungen und Inhalte können personalisiert werden, basierend auf ein Profil. Mehr Daten können besser personalisierte Werbungen und Inhalte hinzufügen. Werbung und Inhalte können gezeigt und gemessen werden. Einblicke über das Publikum, welche die Werbung gesehen haben und den Inhalt, können abgeleitet werden. So wie Daten können genutzt werden, um es zu verbessern oder die Benutzer Erfahrung zu verbessern das System und die Software.

Wenn du “Ich stimme zu” klickst, erlaubst du uns, die Cookies zu benutzen die Geräte Bezeichnung, den Web oder ähnliche Technologien zu benutzen. Deine Settings, können in deinem Gerät bei deinem Browser geändert werden.

Für den bestimmten Zweck, berechtigten Interessen beruhen darauf, mehr als auf den Inhalt. Du kannst mehr darüber in unseren Privaten und Cookie Politik lesen.